Location: Mount Hamilton
(37.3433°N, 121.6347°W)
Time: 20:03:39
(UTC-07:00)

Tiangong 2 - Visible Passes

Search period start: 20 June 2018 00:00
Search period end: 30 June 2018 00:00
Orbit: 291 x 297 km, 42.8° (Epoch: 20 June)

Date Brightness Start Highest point End Pass type
(mag) Time Alt. Az. Time Alt. Az. Time Alt. Az.
25 Jun 2.6 04:40:48 14° S 04:42:00 18° SE 04:43:53 10° E visible
26 Jun 1.3 04:46:10 19° SSW 04:47:37 39° SSE 04:50:03 10° ENE visible
27 Jun 0.4 04:51:24 17° WSW 04:53:14 89° SSE 04:55:47 10° ENE visible
28 Jun 3.7 03:26:12 11° E 03:26:12 11° E 03:26:20 10° E visible
28 Jun 1.3 04:56:31 11° W 04:58:50 46° NNW 05:01:19 10° ENE visible
29 Jun 3.0 03:31:12 19° E 03:31:12 19° E 03:32:08 10° ENE visible
29 Jun 2.1 05:02:05 10° WNW 05:04:24 30° NNW 05:06:44 10° NE visible
